FENGYUN 1C DEB, 40999

Orbit data source: Space-Track

FENGYUN 1C DEB, 40999 is space debris in SSO originally from a launch on Mon, 10 May 1999 UTC launched from the Taiyaun Space Center, China (TSC). Fengyun 1C debris stems from the Chinese weather satellite Fengyun-1C, which was intentionally destroyed by a Chinese anti-satellite missile in 2007. This event dramatically increased the amount of space debris, with thousands of trackable fragments posing hazards to satellites and human spaceflight. The Fengyun 1C debris cloud has become a focal point in discussions about space sustainability and the need for international regulations to prevent the creation of new debris.

Loading next visibility...
Identifier
40999, 1999-025EXD
Orbit
SSO
Country
Flag of CNCN / PRC
Related business
Manufacturer
Unknown
Mission
Spacecraft
Bus & Motor
Unknown
Mass
Unknown
Launch date (UTC)
1999-05-10 (27 years ago)
Launch vehicle
Unknown
Launch site
Taiyaun Space Center, China (TSC)
Object type
Payload
Rocket body
Debris
Shape & HBR
Unknown shape, 0.1 m
Radar Cross Section
Small (<0.1 m²)

Expand to show TLE details & history
Last TLE update: 2 weeks ago

TLE from 2 weeks ago
0 FENGYUN 1C DEB
1 40999U 99025EXD 26158.92824484  .00000979  00000-0  62788-3 0  9998
2 40999  99.1086 229.9769 0058922 125.0149 235.6567 14.04854738840480
Epoch: 2026-06-07T22:16Z
TLE epoch observation values (Epoch: 2026-06-07T22:16:40.354Z)
Latitude
-0.00003°
Longitude
-0.51365°
Altitude
904.206 km
Speed
7.388 km/s
True Right ascension
15h 19m 54s
True Declination
0° 00' 00"
Sunlit
Object was in full shadow at epoch
Visualization orbit readout
Latitude
Unknown
Longitude
Unknown
Altitude
Unknown
Speed
Unknown
Apparent Right ascension
Unknown
Apparent Declination
Unknown
Sunlit
N/A
Visualization observer readout
Local Sidereal Time
21:55:07
Azimuth
Unknown
Elevation
Unknown
Doppler factor
Unknown
Orbital elements
Apogee altitude
916.963 km
Perigee altitude
831.498 km
Semi-major axis
7,252.368 km
Eccentricity
0.00589
Inclination
99.1086°
RAAN
229.9769°
Arg. of periapsis
125.0149°
True anomaly
235.10153°
Mean anomaly
235.6567°
Eccentric anomaly
235.37888°
Mean motion
3.51418 °/min
Orbital period
102.44 mins
BSTAR
0.00062788
Loading maneuver chart data...
Computing Atmospheric mass density...

Documentation

Showing up to 5 results
|